Location: Drummondville
(45.8830°N, 72.4830°W)
Time: 17:43:28
(UTC-05:00)

ISS - Pass Details

Date: 14 November 2017
Orbit: 402 x 407 km, 51.6° (Epoch: 21 November)

Event Time Altitude Azimuth Distance (km) Brightness Sun altitude
Exits shadow 04:23:16 28° 71° (ENE) 795 -1.8 -25.3°
Drops below altitude 10° 04:25:08 10° 92° (E) 1,453 0.0 -25.0°
Sets 04:27:16 0° 99° (E) 2,311 1.4 -24.6°
